CPA1850 SAEZ-SAZN

Flight info

Callsign CPA1850
Flight time 1h 19m
Altitude 32000
Route TORUL1 TORUL UT654 BIXIM UT669 ROPON ROPO2Q
Aircraft B744/H-V/N

Departure

Time 2026-04-23 23:24
Airport Ezeiza International Airport - Ministro Pistarini (SAEZ)

Arrival

Time 2026-04-24 00:43
Airport Presidente Perón International Airport (SAZN)
Time Latitude Longitude Altitude Speed Heading
2026-04-23 22:55 -34.80996 -58.53681 81 ft 0 kts 253°
2026-04-23 23:12 -34.80994 -58.53675 81 ft 2 kts 253°
2026-04-23 23:13 -34.80992 -58.53665 81 ft 3 kts 253°
2026-04-23 23:13 -34.80981 -58.53646 81 ft 3 kts 205°
2026-04-23 23:13 -34.80961 -58.53646 81 ft 3 kts 163°
2026-04-23 23:13 -34.80955 -58.53648 81 ft 0 kts 163°
2026-04-23 23:15 -34.80967 -58.53642 81 ft 7 kts 156°
2026-04-23 23:16 -34.81028 -58.53589 81 ft 12 kts 143°
2026-04-23 23:16 -34.81106 -58.53563 81 ft 12 kts 188°
2026-04-23 23:16 -34.81193 -58.53582 81 ft 14 kts 190°
2026-04-23 23:16 -34.81287 -58.53578 81 ft 14 kts 177°
2026-04-23 23:17 -34.81385 -58.53580 81 ft 15 kts 181°
2026-04-23 23:17 -34.81470 -58.53624 81 ft 13 kts 212°
2026-04-23 23:17 -34.81525 -58.53663 81 ft 14 kts 210°
2026-04-23 23:17 -34.81633 -58.53758 81 ft 14 kts 225°
2026-04-23 23:18 -34.81680 -58.53820 81 ft 15 kts 227°
2026-04-23 23:18 -34.81738 -58.53920 81 ft 12 kts 237°
2026-04-23 23:18 -34.81768 -58.53980 81 ft 13 kts 240°
2026-04-23 23:18 -34.81784 -58.54020 81 ft 13 kts 246°
2026-04-23 23:19 -34.81792 -58.54054 81 ft 13 kts 258°
2026-04-23 23:19 -34.81788 -58.54169 81 ft 14 kts 280°
2026-04-23 23:19 -34.81770 -58.54291 81 ft 16 kts 279°
2026-04-23 23:19 -34.81752 -58.54427 81 ft 17 kts 277°
2026-04-23 23:20 -34.81749 -58.54540 81 ft 9 kts 258°
2026-04-23 23:20 -34.81765 -58.54622 81 ft 11 kts 254°
2026-04-23 23:20 -34.81779 -58.54715 81 ft 12 kts 267°
2026-04-23 23:20 -34.81773 -58.54793 81 ft 13 kts 279°
2026-04-23 23:21 -34.81753 -58.54906 81 ft 14 kts 283°
2026-04-23 23:21 -34.81731 -58.55031 81 ft 16 kts 282°
2026-04-23 23:21 -34.81706 -58.55168 81 ft 17 kts 282°
2026-04-23 23:21 -34.81694 -58.55262 81 ft 7 kts 270°
2026-04-23 23:22 -34.81714 -58.55316 81 ft 8 kts 233°
2026-04-23 23:22 -34.81760 -58.55350 81 ft 8 kts 194°
2026-04-23 23:22 -34.81813 -58.55336 81 ft 8 kts 151°
2026-04-23 23:22 -34.81868 -58.55299 81 ft 10 kts 153°
2026-04-23 23:23 -34.81918 -58.55244 81 ft 10 kts 117°
2026-04-23 23:23 -34.81950 -58.55101 81 ft 45 kts 103°
2026-04-23 23:23 -34.82088 -58.54327 81 ft 142 kts 102°
2026-04-23 23:23 -34.82365 -58.52783 204 ft 221 kts 102°
2026-04-23 23:24 -34.82717 -58.50765 954 ft 266 kts 102°
2026-04-23 23:24 -34.83252 -58.48542 2421 ft 270 kts 108°
2026-04-23 23:24 -34.83921 -58.46408 3810 ft 273 kts 111°
2026-04-23 23:24 -34.84659 -58.44228 4812 ft 292 kts 112°
2026-04-23 23:25 -34.85548 -58.41823 5639 ft 327 kts 114°
2026-04-23 23:25 -34.86609 -58.39239 6479 ft 350 kts 118°
2026-04-23 23:25 -34.87919 -58.36644 6739 ft 378 kts 127°
2026-04-23 23:25 -34.89841 -58.34379 7283 ft 387 kts 143°
2026-04-23 23:26 -34.92190 -58.32858 8501 ft 370 kts 158°
2026-04-23 23:26 -34.94649 -58.32083 9591 ft 364 kts 172°
2026-04-23 23:26 -34.97169 -58.31912 10319 ft 369 kts 182°
2026-04-23 23:26 -34.98557 -58.32026 10690 ft 371 kts 187°
2026-04-23 23:27 -35.01117 -58.32610 11424 ft 371 kts 196°
2026-04-23 23:27 -35.03526 -58.33664 12182 ft 369 kts 205°
2026-04-23 23:27 -35.05803 -58.35120 13066 ft 364 kts 212°
2026-04-23 23:27 -35.07748 -58.37090 13486 ft 371 kts 225°
2026-04-23 23:28 -35.09211 -58.39728 13864 ft 377 kts 243°
2026-04-23 23:28 -35.10120 -58.42694 14794 ft 367 kts 251°
2026-04-23 23:28 -35.10859 -58.45641 15792 ft 359 kts 255°
2026-04-23 23:28 -35.11551 -58.48631 16263 ft 389 kts 255°
2026-04-23 23:29 -35.12288 -58.52063 16593 ft 444 kts 256°
2026-04-23 23:29 -35.13055 -58.55907 17316 ft 487 kts 257°
2026-04-23 23:29 -35.13999 -58.59954 18247 ft 495 kts 253°
2026-04-23 23:29 -35.15061 -58.63858 18896 ft 470 kts 252°
2026-04-23 23:30 -35.16051 -58.67470 19945 ft 430 kts 252°
2026-04-23 23:30 -35.16966 -58.70814 20943 ft 400 kts 252°
2026-04-23 23:30 -35.17833 -58.73992 21250 ft 389 kts 252°
2026-04-23 23:30 -35.18691 -58.77134 21628 ft 386 kts 252°
2026-04-23 23:31 -35.19544 -58.80257 22345 ft 389 kts 252°
2026-04-23 23:31 -35.20409 -58.83431 23095 ft 400 kts 252°
2026-04-23 23:31 -35.21305 -58.86722 23854 ft 417 kts 252°
2026-04-23 23:31 -35.22237 -58.90156 24613 ft 437 kts 252°
2026-04-23 23:32 -35.23205 -58.93732 25371 ft 449 kts 252°
2026-04-23 23:32 -35.24190 -58.97378 26124 ft 452 kts 252°
2026-04-23 23:32 -35.25177 -59.01024 26877 ft 446 kts 252°
2026-04-23 23:32 -35.26147 -59.04611 27625 ft 443 kts 252°
2026-04-23 23:33 -35.27116 -59.08191 28372 ft 449 kts 252°
2026-04-23 23:33 -35.28112 -59.11877 29132 ft 454 kts 252°
2026-04-23 23:33 -35.29104 -59.15550 29883 ft 457 kts 252°
2026-04-23 23:33 -35.30110 -59.19278 30637 ft 462 kts 252°
2026-04-23 23:34 -35.31117 -59.23012 31385 ft 466 kts 252°
2026-04-23 23:34 -35.32136 -59.26790 32029 ft 472 kts 252°
2026-04-23 23:34 -35.33216 -59.30701 32077 ft 486 kts 251°
2026-04-23 23:35 -35.35880 -59.38406 32012 ft 498 kts 246°
2026-04-23 23:35 -35.39101 -59.45939 32001 ft 499 kts 242°
2026-04-23 23:36 -35.42662 -59.53283 32001 ft 500 kts 239°
2026-04-23 23:36 -35.46415 -59.60461 32000 ft 502 kts 238°
2026-04-23 23:37 -35.50300 -59.67565 32000 ft 503 kts 237°
2026-04-23 23:37 -35.54286 -59.74664 32000 ft 504 kts 237°
2026-04-23 23:38 -35.58304 -59.81714 32000 ft 504 kts 236°
2026-04-23 23:38 -35.62371 -59.88795 32000 ft 505 kts 236°
2026-04-23 23:39 -35.66429 -59.95838 32000 ft 505 kts 236°
2026-04-23 23:39 -35.70499 -60.02895 32000 ft 505 kts 236°
2026-04-23 23:40 -35.74560 -60.09942 32000 ft 505 kts 236°
2026-04-23 23:40 -35.78622 -60.17000 32000 ft 505 kts 236°
2026-04-23 23:41 -35.82696 -60.24092 32000 ft 505 kts 236°
2026-04-23 23:41 -35.86752 -60.31168 32000 ft 506 kts 236°
2026-04-23 23:42 -35.90802 -60.38248 32000 ft 506 kts 236°
2026-04-23 23:42 -35.94844 -60.45331 32000 ft 506 kts 236°
2026-04-23 23:43 -35.98900 -60.52455 32000 ft 506 kts 236°
2026-04-23 23:43 -36.02927 -60.59543 32000 ft 506 kts 236°
2026-04-23 23:44 -36.06968 -60.66674 32000 ft 506 kts 237°
2026-04-23 23:44 -36.11000 -60.73810 32000 ft 506 kts 237°
2026-04-23 23:45 -36.15026 -60.80958 32000 ft 505 kts 237°
2026-04-23 23:45 -36.19027 -60.88088 32000 ft 505 kts 237°
2026-04-23 23:46 -36.23046 -60.95272 32000 ft 505 kts 237°
2026-04-23 23:46 -36.27034 -61.02422 32000 ft 505 kts 237°
2026-04-23 23:47 -36.31039 -61.09623 32000 ft 505 kts 237°
2026-04-23 23:47 -36.35015 -61.16795 32000 ft 505 kts 237°
2026-04-23 23:48 -36.38993 -61.23981 32000 ft 505 kts 237°
2026-04-23 23:48 -36.42984 -61.31191 32000 ft 505 kts 237°
2026-04-23 23:49 -36.48949 -61.41996 32000 ft 505 kts 237°
2026-04-23 23:49 -36.52922 -61.49212 32000 ft 505 kts 237°
2026-04-23 23:50 -36.56872 -61.56406 32000 ft 505 kts 237°
2026-04-23 23:50 -36.60186 -61.62453 32000 ft 505 kts 237°
2026-04-23 23:51 -36.64133 -61.69674 32000 ft 505 kts 237°
2026-04-23 23:51 -36.68085 -61.76918 32000 ft 505 kts 237°
2026-04-23 23:52 -36.72056 -61.84216 32000 ft 505 kts 237°
2026-04-23 23:52 -36.75985 -61.91452 32000 ft 505 kts 237°
2026-04-23 23:53 -36.79932 -61.98736 32000 ft 505 kts 237°
2026-04-23 23:53 -36.83855 -62.05994 32000 ft 505 kts 237°
2026-04-23 23:54 -36.87803 -62.13313 32000 ft 505 kts 237°
2026-04-23 23:54 -36.91722 -62.20593 32000 ft 505 kts 237°
2026-04-23 23:55 -36.95643 -62.27894 32000 ft 505 kts 238°
2026-04-23 23:55 -36.99540 -62.35167 32000 ft 505 kts 238°
2026-04-23 23:56 -37.03470 -62.42517 32000 ft 505 kts 238°
2026-04-23 23:56 -37.07357 -62.49803 32000 ft 505 kts 238°
2026-04-23 23:57 -37.11261 -62.57137 32000 ft 505 kts 238°
2026-04-23 23:57 -37.15176 -62.64509 32000 ft 505 kts 238°
2026-04-23 23:58 -37.19062 -62.71843 32000 ft 505 kts 238°
2026-04-23 23:58 -37.22945 -62.79190 32000 ft 505 kts 238°
2026-04-23 23:59 -37.26824 -62.86546 32000 ft 505 kts 238°
2026-04-23 23:59 -37.30688 -62.93893 32000 ft 505 kts 238°
2026-04-24 00:00 -37.34442 -63.01334 32000 ft 504 kts 241°
2026-04-24 00:00 -37.37796 -63.09129 32000 ft 504 kts 244°
2026-04-24 00:01 -37.40897 -63.17030 32000 ft 504 kts 245°
2026-04-24 00:01 -37.43891 -63.24980 32000 ft 504 kts 246°
2026-04-24 00:02 -37.46853 -63.32972 32000 ft 504 kts 246°
2026-04-24 00:02 -37.49802 -63.40970 32000 ft 504 kts 246°
2026-04-24 00:03 -37.52749 -63.48964 32000 ft 503 kts 246°
2026-04-24 00:03 -37.55711 -63.56992 32000 ft 503 kts 246°
2026-04-24 00:04 -37.58661 -63.64980 32000 ft 503 kts 246°
2026-04-24 00:04 -37.61633 -63.73028 32000 ft 503 kts 246°
2026-04-24 00:05 -37.64587 -63.81031 32000 ft 503 kts 246°
2026-04-24 00:05 -37.67536 -63.89031 32000 ft 503 kts 246°
2026-04-24 00:06 -37.70479 -63.97025 32000 ft 503 kts 246°
2026-04-24 00:06 -37.73429 -64.05054 32000 ft 503 kts 246°
2026-04-24 00:07 -37.76381 -64.13106 32000 ft 503 kts 246°
2026-04-24 00:07 -37.79331 -64.21175 32000 ft 503 kts 246°
2026-04-24 00:08 -37.82249 -64.29171 32000 ft 503 kts 246°
2026-04-24 00:08 -37.85192 -64.37259 32000 ft 503 kts 246°
2026-04-24 00:09 -37.88110 -64.45298 32000 ft 503 kts 246°
2026-04-24 00:09 -37.91028 -64.53360 32000 ft 503 kts 246°
2026-04-24 00:10 -37.93945 -64.61439 32000 ft 503 kts 246°
2026-04-24 00:10 -37.96851 -64.69510 32000 ft 503 kts 246°
2026-04-24 00:11 -37.99760 -64.77609 32000 ft 503 kts 246°
2026-04-24 00:11 -38.02652 -64.85685 32000 ft 503 kts 246°
2026-04-24 00:12 -38.05538 -64.93764 32000 ft 503 kts 246°
2026-04-24 00:12 -38.08429 -65.01880 32000 ft 503 kts 247°
2026-04-24 00:13 -38.11295 -65.09948 32000 ft 503 kts 247°
2026-04-24 00:13 -38.14184 -65.18105 32000 ft 503 kts 247°
2026-04-24 00:14 -38.15534 -65.21924 32000 ft 503 kts 247°
2026-04-24 00:15 -38.16887 -65.25755 32000 ft 502 kts 247°
2026-04-24 00:15 -38.19565 -65.33348 31782 ft 474 kts 247°
2026-04-24 00:16 -38.20887 -65.37100 31320 ft 460 kts 247°
2026-04-24 00:16 -38.22176 -65.40763 30827 ft 453 kts 247°
2026-04-24 00:16 -38.23463 -65.44430 30323 ft 449 kts 247°
2026-04-24 00:16 -38.24734 -65.48061 29821 ft 446 kts 247°
2026-04-24 00:17 -38.25985 -65.51641 29323 ft 444 kts 247°
2026-04-24 00:17 -38.27239 -65.55234 28820 ft 441 kts 247°
2026-04-24 00:17 -38.28473 -65.58773 28322 ft 438 kts 247°
2026-04-24 00:17 -38.29700 -65.62300 27821 ft 434 kts 247°
2026-04-24 00:18 -38.30912 -65.65784 27323 ft 430 kts 247°
2026-04-24 00:18 -38.32120 -65.69259 26820 ft 426 kts 247°
2026-04-24 00:18 -38.33316 -65.72708 26317 ft 421 kts 247°
2026-04-24 00:18 -38.34488 -65.76089 25818 ft 417 kts 248°
2026-04-24 00:19 -38.35658 -65.79467 25313 ft 411 kts 248°
2026-04-24 00:19 -38.36807 -65.82791 24810 ft 406 kts 248°
2026-04-24 00:19 -38.37932 -65.86048 24311 ft 400 kts 248°
2026-04-24 00:19 -38.39045 -65.89275 23809 ft 395 kts 248°
2026-04-24 00:20 -38.40151 -65.92479 23303 ft 389 kts 248°
2026-04-24 00:20 -38.41227 -65.95584 22805 ft 383 kts 248°
2026-04-24 00:20 -38.42299 -65.98672 22302 ft 376 kts 248°
2026-04-24 00:20 -38.43352 -66.01699 21800 ft 370 kts 248°
2026-04-24 00:21 -38.44053 -66.03716 21461 ft 366 kts 248°
2026-04-24 00:21 -38.45409 -66.07619 20794 ft 359 kts 248°
2026-04-24 00:21 -38.46086 -66.09569 20457 ft 356 kts 248°
2026-04-24 00:21 -38.46668 -66.11249 20164 ft 354 kts 248°
2026-04-24 00:22 -38.47185 -66.12739 19903 ft 352 kts 248°
2026-04-24 00:22 -38.48171 -66.15589 19348 ft 350 kts 248°
2026-04-24 00:22 -38.49157 -66.18441 18725 ft 348 kts 248°
2026-04-24 00:23 -38.50125 -66.21247 18102 ft 345 kts 248°
2026-04-24 00:23 -38.51090 -66.24046 17474 ft 342 kts 248°
2026-04-24 00:23 -38.52036 -66.26792 16853 ft 339 kts 248°
2026-04-24 00:23 -38.52981 -66.29537 16226 ft 336 kts 248°
2026-04-24 00:24 -38.53920 -66.32269 15599 ft 334 kts 248°
2026-04-24 00:24 -38.54862 -66.35014 14970 ft 336 kts 248°
2026-04-24 00:24 -38.55801 -66.37754 14348 ft 338 kts 248°
2026-04-24 00:24 -38.56748 -66.40518 13721 ft 339 kts 248°
2026-04-24 00:25 -38.57689 -66.43259 13128 ft 337 kts 248°
2026-04-24 00:25 -38.58381 -66.45277 12791 ft 333 kts 248°
2026-04-24 00:25 -38.59308 -66.47977 12341 ft 331 kts 248°
2026-04-24 00:25 -38.60231 -66.50669 11891 ft 330 kts 248°
2026-04-24 00:26 -38.61159 -66.53380 11436 ft 329 kts 248°
2026-04-24 00:26 -38.62070 -66.56043 10988 ft 327 kts 248°
2026-04-24 00:26 -38.62982 -66.58713 10536 ft 325 kts 248°
2026-04-24 00:26 -38.63878 -66.61338 10089 ft 324 kts 248°
2026-04-24 00:27 -38.64782 -66.63989 9634 ft 321 kts 248°
2026-04-24 00:27 -38.65665 -66.66582 9188 ft 319 kts 248°
2026-04-24 00:27 -38.66556 -66.69201 8733 ft 317 kts 248°
2026-04-24 00:27 -38.67427 -66.71762 8286 ft 315 kts 248°
2026-04-24 00:28 -38.68296 -66.74320 8092 ft 307 kts 248°
2026-04-24 00:28 -38.69146 -66.76824 8024 ft 306 kts 248°
2026-04-24 00:28 -38.69992 -66.79322 8006 ft 307 kts 248°
2026-04-24 00:28 -38.70598 -66.81111 8003 ft 308 kts 248°
2026-04-24 00:29 -38.70859 -66.81893 8001 ft 308 kts 249°
2026-04-24 00:29 -38.71423 -66.84511 7990 ft 307 kts 259°
2026-04-24 00:30 -38.71654 -66.87296 7752 ft 311 kts 266°
2026-04-24 00:30 -38.71714 -66.89633 7500 ft 302 kts 269°
2026-04-24 00:30 -38.71715 -66.92271 7046 ft 297 kts 270°
2026-04-24 00:30 -38.71687 -66.94902 6593 ft 293 kts 271°
2026-04-24 00:31 -38.71659 -66.97520 6136 ft 290 kts 271°
2026-04-24 00:31 -38.71644 -67.00022 5986 ft 277 kts 271°
2026-04-24 00:31 -38.71642 -67.02481 5928 ft 275 kts 271°
2026-04-24 00:31 -38.71652 -67.05187 5911 ft 336 kts 270°
2026-04-24 00:32 -38.71687 -67.08495 5894 ft 412 kts 269°
2026-04-24 00:32 -38.71879 -67.12497 5871 ft 493 kts 266°
2026-04-24 00:32 -38.72363 -67.17085 5831 ft 526 kts 261°
2026-04-24 00:32 -38.73083 -67.21484 5777 ft 489 kts 257°
2026-04-24 00:33 -38.73952 -67.25485 5719 ft 451 kts 254°
2026-04-24 00:33 -38.73960 -67.25517 5719 ft 451 kts 254°
2026-04-24 00:33 -38.74917 -67.29143 5658 ft 415 kts 251°
2026-04-24 00:33 -38.75924 -67.32471 5592 ft 381 kts 249°
2026-04-24 00:34 -38.76925 -67.35464 5529 ft 352 kts 248°
2026-04-24 00:34 -38.77907 -67.38213 5468 ft 328 kts 246°
2026-04-24 00:34 -38.78865 -67.40779 5407 ft 308 kts 246°
2026-04-24 00:34 -38.79783 -67.43171 5348 ft 293 kts 245°
2026-04-24 00:35 -38.80693 -67.45514 5299 ft 295 kts 245°
2026-04-24 00:35 -38.81615 -67.47882 5262 ft 299 kts 245°
2026-04-24 00:35 -38.82548 -67.50270 5238 ft 300 kts 245°
2026-04-24 00:35 -38.83488 -67.52681 5213 ft 302 kts 245°
2026-04-24 00:36 -38.84428 -67.55091 5188 ft 303 kts 245°
2026-04-24 00:36 -38.85362 -67.57491 5164 ft 303 kts 245°
2026-04-24 00:36 -38.86311 -67.59934 5139 ft 303 kts 245°
2026-04-24 00:36 -38.87249 -67.62355 5114 ft 304 kts 245°
2026-04-24 00:37 -38.88192 -67.64790 5089 ft 304 kts 245°
2026-04-24 00:37 -38.89131 -67.67221 5064 ft 304 kts 245°
2026-04-24 00:37 -38.90053 -67.69608 4986 ft 293 kts 245°
2026-04-24 00:37 -38.90937 -67.71899 4854 ft 282 kts 245°
2026-04-24 00:38 -38.91791 -67.74118 4765 ft 270 kts 245°
2026-04-24 00:38 -38.92614 -67.76257 4681 ft 260 kts 245°
2026-04-24 00:38 -38.93378 -67.78271 4598 ft 250 kts 246°
2026-04-24 00:38 -38.93940 -67.80370 4512 ft 243 kts 254°
2026-04-24 00:39 -38.94309 -67.82507 4358 ft 245 kts 259°
2026-04-24 00:39 -38.94542 -67.84696 4172 ft 249 kts 264°
2026-04-24 00:39 -38.94647 -67.86927 4048 ft 249 kts 267°
2026-04-24 00:39 -38.94716 -67.89119 3906 ft 247 kts 268°
2026-04-24 00:40 -38.94773 -67.91294 3742 ft 246 kts 268°
2026-04-24 00:40 -38.94819 -67.93489 3691 ft 243 kts 268°
2026-04-24 00:40 -38.94897 -67.95650 3488 ft 234 kts 267°
2026-04-24 00:40 -38.94944 -67.97657 3219 ft 220 kts 269°
2026-04-24 00:41 -38.94974 -67.99619 2867 ft 220 kts 269°
2026-04-24 00:41 -38.94976 -68.01617 2604 ft 225 kts 270°
2026-04-24 00:41 -38.94977 -68.03619 2385 ft 226 kts 270°
2026-04-24 00:41 -38.94986 -68.05685 2108 ft 230 kts 270°
2026-04-24 00:42 -38.94952 -68.07770 1645 ft 240 kts 271°
2026-04-24 00:42 -38.94913 -68.09907 1307 ft 230 kts 271°
2026-04-24 00:42 -38.94906 -68.11789 1151 ft 190 kts 270°
2026-04-24 00:42 -38.94906 -68.13336 994 ft 157 kts 270°
2026-04-24 00:43 -38.94909 -68.14614 911 ft 125 kts 270°
2026-04-24 00:43 -38.94902 -68.15437 911 ft 61 kts 270°
2026-04-24 00:43 -38.94900 -68.15764 911 ft 27 kts 270°
2026-04-24 00:43 -38.94899 -68.16055 911 ft 33 kts 270°
2026-04-24 00:44 -38.94898 -68.16342 911 ft 32 kts 270°
2026-04-24 00:44 -38.94897 -68.16614 911 ft 26 kts 270°
2026-04-24 00:44 -38.94873 -68.16819 911 ft 23 kts 293°
2026-04-24 00:44 -38.94859 -68.16950 911 ft 9 kts 242°
2026-04-24 00:45 -38.94889 -68.16965 911 ft 4 kts 171°
2026-04-24 00:45 -38.94905 -68.16942 911 ft 7 kts 117°
2026-04-24 00:45 -38.94908 -68.16760 911 ft 31 kts 88°
2026-04-24 00:45 -38.94899 -68.16406 911 ft 48 kts 88°
2026-04-24 00:46 -38.94897 -68.15904 911 ft 64 kts 90°
2026-04-24 00:46 -38.94899 -68.15322 911 ft 39 kts 91°
2026-04-24 00:46 -38.94943 -68.15152 911 ft 15 kts 122°
2026-04-24 00:46 -38.94975 -68.15098 911 ft 0 kts 131°
2026-04-24 00:49 -38.94979 -68.15091 911 ft 2 kts 131°
2026-04-24 00:49 -38.95000 -68.15061 911 ft 11 kts 131°
2026-04-24 00:50 -38.95093 -68.14924 911 ft 19 kts 131°
2026-04-24 00:50 -38.95119 -68.14844 911 ft 8 kts 92°
2026-04-24 00:50 -38.95119 -68.14751 911 ft 13 kts 90°
2026-04-24 00:50 -38.95119 -68.14617 911 ft 18 kts 90°
2026-04-24 00:51 -38.95118 -68.14439 911 ft 22 kts 89°
2026-04-24 00:51 -38.95117 -68.14336 911 ft 22 kts 89°
2026-04-24 00:53 -38.95117 -68.14281 911 ft 23 kts 89°
2026-04-24 00:53 -38.95116 -68.14165 911 ft 13 kts 89°
2026-04-24 00:53 -38.95102 -68.13993 911 ft 9 kts 91°
2026-04-24 00:53 -38.95112 -68.13964 911 ft 4 kts 128°
2026-04-24 00:54 -38.95128 -68.13957 911 ft 5 kts 167°
2026-04-24 00:54 -38.95143 -68.13962 911 ft 2 kts 202°
2026-04-24 00:57 -38.95144 -68.13962 911 ft 0 kts 202°
2026-04-24 00:58 -38.95144 -68.13963 911 ft 0 kts 202°
2026-04-24 01:02 -38.95145 -68.13963 911 ft 0 kts 202°
2026-04-24 01:07 -38.95146 -68.13963 911 ft 0 kts 202°
2026-04-24 01:08 -38.95146 -68.13964 911 ft 0 kts 202°